STARLINK-1122 (44949 NORAD) Tracking and Keplerian Element Data

This shows tracking and keplerian element data for the satellite.

Feedback or suggestion? Click here.




ElementValue
Catalog44949
NameSTARLINK-1122
Epoch Orbit2807
Epoch Day190.25001157
Epoch Year2020
RAAN261.1822
Inclination52.9992
Eccentricity0.0001237
Argument of Perigee126.4266
Mean Anonmoly330.2173
Mean Motion15.05596644
Decay Rate-6.826E-05
L11 44949U 20001AM 20190.25001157 -.00006826 00000-0 -44956-3 0 9991
L22 44949 52.9992 261.1822 0001237 126.4266 330.2173 15.05596644 28071

Live tracking and technical data element details for STARLINK-1122 (NORAD 44949). STARLINK-1122 can be tracked NOW for your location showing map with azimuth and elevation plus other details from your city location.

Track the satellite on the map from your city or location and see movement details for azimuth, elevation, latitude, longitude, range, height, and movement on the map or in text.







IsCatalogInMostPopularTable: catalog: 44949, numindb: 59
Update: records affected: 1



GetName: 44949 STARLINK-1122

Hit Count: updated at: Fri, 10 Jul 2020 03:21:21 GMT